GW2177 Weather Reports


Display with metric or nautical units.
time (UTC)temp
F
wind
direction
speed
MPH
gust
MPH
rain 1hr
in
rain 24hr
in
rain mn
in
humidity
%
barometer
mb
20260906171308 96 157 0.0 0.0 0.00 0.00 0.00 52 1012.6
20260906170804 95 117 2.0 2.0 0.00 0.00 0.00 53 1012.6
20260906170300 94 112 2.0 2.0 0.00 0.00 0.00 55 1012.7
20260906165756 94 113 4.0 4.0 0.00 0.00 0.00 56 1013.0
20260906165256 95 101 4.0 4.0 0.00 0.00 0.00 55 1013.0
20260906164755 94 152 0.0 0.0 0.00 0.00 0.00 56 1013.1
20260906164250 94 124 2.0 2.0 0.00 0.00 0.00 56 1013.1
20260906163746 92 134 2.0 3.0 0.00 0.00 0.00 58 1013.3
20260906163242 92 106 4.0 6.0 0.00 0.00 0.00 59 1013.2
20260906162739 93 113 4.0 4.0 0.00 0.00 0.00 58 1013.2
20260906162233 92 157 1.0 2.0 0.00 0.00 0.00 59 1013.3
20260906161733 93 107 3.0 3.0 0.00 0.00 0.00 58 1013.1
20260906161232 92 123 1.0 2.0 0.00 0.00 0.00 60 1013.2
20260906160732 92 197 2.0 2.0 0.00 0.00 0.00 60 1013.3
20260906160231 93 101 1.0 1.0 0.00 0.00 0.00 61 1013.2
20260906155729 91 148 1.0 1.0 0.00 0.00 0.00 62 1013.2
20260906155224 90 137 1.0 1.0 0.00 0.00 0.00 63 1013.2
20260906154719 90 91 3.0 3.0 0.00 0.00 0.00 63 1013.2
20260906154215 90 98 1.0 2.0 0.00 0.00 0.00 63 1013.1
20260906153712 90 149 3.0 4.0 0.00 0.00 0.00 63 1013.1
20260906153208 89 121 5.0 7.0 0.00 0.00 0.00 64 1013.1
20260906152702 89 136 3.0 3.0 0.00 0.00 0.00 65 1012.8
20260906152156 88 132 2.0 3.0 0.00 0.00 0.00 66 1012.9
20260906151651 89 126 4.0 6.0 0.00 0.00 0.00 65 1012.9
20260906151147 88 179 1.0 1.0 0.00 0.00 0.00 67 1012.9
20260906150642 87 124 2.0 3.0 0.00 0.00 0.00 68 1012.9
20260906150137 87 123 1.0 2.0 0.00 0.00 0.00 69 1012.9
20260906145636 87 92 4.0 6.0 0.00 0.00 0.00 68 1012.8
20260906145131 86 114 3.0 3.0 0.00 0.00 0.00 69 1012.9
20260906144631 85 123 2.0 2.0 0.00 0.00 0.00 71 1013.1
20260906144126 85 126 1.0 2.0 0.00 0.00 0.00 72 1012.9
20260906143626 84 105 3.0 3.0 0.00 0.00 0.00 73 1013.2
20260906143124 84 105 5.0 6.0 0.00 0.00 0.00 73 1013.1
20260906142622 83 154 1.0 2.0 0.00 0.00 0.00 74 1013.3
20260906142118 83 119 2.0 3.0 0.00 0.00 0.00 75 1013.1
20260906141616 83 173 1.0 1.0 0.00 0.00 0.00 76 1013.1
20260906141112 82 149 1.0 1.0 0.00 0.00 0.00 76 1013.2
20260906140611 82 123 2.0 2.0 0.00 0.00 0.00 77 1013.4
20260906140106 82 176 1.0 1.0 0.00 0.00 0.00 78 1013.3
20260906135603 81 182 0.0 0.0 0.00 0.00 0.00 79 1013.3
20260906135059 81 180 1.0 2.0 0.00 0.00 0.00 79 1013.4
20260906134554 80 174 1.0 1.0 0.00 0.00 0.00 79 1013.3
20260906134054 80 166 0.0 0.0 0.00 0.00 0.00 80 1013.1
20260906133550 80 150 1.0 1.0 0.00 0.00 0.00 81 1013.1
20260906133045 79 168 0.0 1.0 0.00 0.00 0.00 81 1013.0
20260906132540 79 149 1.0 1.0 0.00 0.00 0.00 82 1013.1
20260906132036 78 193 1.0 1.0 0.00 0.00 0.00 82 1013.3
20260906131531 78 173 0.0 1.0 0.00 0.00 0.00 83 1012.9
20260906131026 78 169 1.0 1.0 0.00 0.00 0.00 83 1013.0
20260906130526 78 158 1.0 1.0 0.00 0.00 0.00 83 1013.0
20260906130021 78 158 2.0 2.0 0.00 0.00 0.00 82 1012.9
20260906125518 78 171 0.0 0.0 0.00 0.00 0.00 82 1012.8
20260906125013 78 163 0.0 1.0 0.00 0.00 0.00 82 1012.8
20260906124508 78 143 1.0 2.0 0.00 0.00 0.00 82 1012.6
20260906124004 77 169 0.0 0.0 0.00 0.00 0.00 82 1012.5
20260906123502 78 156 0.0 1.0 0.00 0.00 0.00 82 1012.6
20260906123003 78 139 2.0 3.0 0.00 0.00 0.00 82 1012.7
20260906122457 78 181 0.0 1.0 0.00 0.00 0.00 81 1012.6
20260906121954 78 173 1.0 2.0 0.00 0.00 0.00 81 1012.4
20260906121450 77 177 0.0 1.0 0.00 0.00 0.00 81 1012.3
20260906120946 77 179 0.0 0.0 0.00 0.00 0.00 81 1012.4
20260906120441 77 169 0.0 1.0 0.00 0.00 0.00 81 1012.3
20260906115937 77 146 1.0 2.0 0.00 0.00 0.00 81 1012.2
20260906115432 77 138 1.0 2.0 0.00 0.00 0.00 81 1011.9
20260906114932 77 132 1.0 2.0 0.00 0.00 0.00 81 1012.1
20260906114426 77 179 0.0 0.0 0.00 0.00 0.00 81 1012.1
20260906113922 77 156 1.0 2.0 0.00 0.00 0.00 81 1012.1
20260906113421 77 176 0.0 0.0 0.00 0.00 0.00 81 1012.1
20260906112917 77 167 0.0 1.0 0.00 0.00 0.00 81 1012.1
20260906112412 77 174 1.0 1.0 0.00 0.00 0.00 81 1012.0
20260906111907 77 133 2.0 2.0 0.00 0.00 0.00 81 1012.1
20260906111407 77 199 0.0 0.0 0.00 0.00 0.00 81 1012.0
20260906110902 77 193 0.0 0.0 0.00 0.00 0.00 81 1011.8
20260906110357 78 175 0.0 0.0 0.00 0.00 0.00 81 1011.9
20260906105856 78 179 0.0 0.0 0.00 0.00 0.00 81 1011.7
20260906105352 78 168 0.0 0.0 0.00 0.00 0.00 80 1011.6
20260906104848 78 163 0.0 1.0 0.00 0.00 0.00 80 1011.6
20260906104346 78 176 0.0 0.0 0.00 0.00 0.00 80 1011.8
20260906103845 78 212 1.0 1.0 0.00 0.00 0.00 80 1011.6
20260906103343 78 184 0.0 0.0 0.00 0.00 0.00 80 1011.6
20260906102840 78 221 0.0 1.0 0.00 0.00 0.00 80 1011.8
20260906102338 78 169 0.0 0.0 0.00 0.00 0.00 80 1011.7
20260906101834 78 169 0.0 0.0 0.00 0.00 0.00 80 1011.5
20260906101329 78 169 0.0 0.0 0.00 0.00 0.00 80 1011.5
20260906100825 78 168 0.0 0.0 0.00 0.00 0.00 80 1011.5
20260906100323 78 168 0.0 0.0 0.00 0.00 0.00 79 1011.5
20260906095819 78 168 0.0 0.0 0.00 0.00 0.00 79 1011.4
20260906095314 78 168 0.0 0.0 0.00 0.00 0.00 79 1011.5
20260906094813 78 169 0.0 0.0 0.00 0.00 0.00 79 1011.5
20260906094308 78 169 0.0 0.0 0.00 0.00 0.00 78 1011.6
20260906093805 78 169 0.0 0.0 0.00 0.00 0.00 78 1011.5
20260906093300 78 193 0.0 0.0 0.00 0.00 0.00 78 1011.4
20260906092755 78 169 0.0 0.0 0.00 0.00 0.00 78 1011.6
20260906092249 79 195 0.0 0.0 0.00 0.00 0.00 77 1011.5
20260906091745 79 200 1.0 1.0 0.00 0.00 0.00 77 1011.4
20260906091241 79 170 0.0 0.0 0.00 0.00 0.00 77 1011.4
20260906090737 79 188 0.0 0.0 0.00 0.00 0.00 77 1011.4
20260906090236 79 166 0.0 0.0 0.00 0.00 0.00 77 1011.2
20260906085736 79 167 0.0 1.0 0.00 0.00 0.00 77 1011.2
20260906085235 79 168 0.0 0.0 0.00 0.00 0.00 76 1011.3
20260906084730 79 168 0.0 0.0 0.00 0.00 0.00 76 1011.0
20260906084230 79 169 0.0 0.0 0.00 0.00 0.00 76 1011.1
20260906083725 79 170 0.0 0.0 0.00 0.00 0.00 76 1011.0
20260906083220 80 178 0.0 0.0 0.00 0.00 0.00 75 1011.1
20260906082716 80 174 0.0 0.0 0.00 0.00 0.00 75 1011.1
20260906082211 80 191 0.0 0.0 0.00 0.00 0.00 75 1011.2
20260906081707 80 170 0.0 0.0 0.00 0.00 0.00 74 1011.0
20260906081201 80 201 0.0 0.0 0.00 0.00 0.00 74 1011.2
20260906080658 80 187 0.0 0.0 0.00 0.00 0.00 74 1010.9
20260906080154 80 167 0.0 0.0 0.00 0.00 0.00 73 1011.0
20260906075654 80 167 0.0 0.0 0.00 0.00 0.00 73 1010.9
20260906075148 81 168 0.0 0.0 0.00 0.00 0.00 72 1011.0
20260906074643 81 163 0.0 0.0 0.00 0.00 0.00 72 1010.9
20260906074142 81 163 0.0 1.0 0.00 0.00 0.00 72 1011.0
20260906073637 81 168 0.0 0.0 0.00 0.00 0.00 72 1010.8
20260906073133 81 166 0.0 0.0 0.00 0.00 0.00 71 1010.8
20260906072628 82 159 0.0 0.0 0.00 0.00 0.00 71 1010.9
20260906072124 82 165 0.0 0.0 0.00 0.00 0.00 71 1010.9
20260906071621 82 180 0.0 0.0 0.00 0.00 0.00 71 1011.0
20260906071120 82 149 2.0 2.0 0.00 0.00 0.00 70 1011.1
20260906070617 82 170 0.0 1.0 0.00 0.00 0.00 70 1010.9
20260906070112 82 181 0.0 0.0 0.00 0.00 0.00 70 1011.0
20260906065612 82 150 1.0 1.0 0.00 0.00 0.00 70 1011.1
20260906065108 82 136 1.0 1.0 0.00 0.00 0.00 70 1011.1
20260906064603 82 173 1.0 1.0 0.00 0.00 0.00 70 1011.1
20260906064057 82 155 1.0 1.0 0.00 0.00 0.00 70 1011.2
20260906063548 83 147 1.0 1.0 0.00 0.00 0.00 69 1011.3
20260906063044 83 163 0.0 1.0 0.00 0.00 0.00 69 1011.3
20260906062539 83 149 1.0 1.0 0.00 0.00 0.00 69 1011.3
20260906062038 83 158 1.0 1.0 0.00 0.00 0.00 69 1011.3
20260906061535 83 156 1.0 1.0 0.00 0.00 0.00 69 1011.2
20260906061033 83 156 1.0 1.0 0.00 0.00 0.00 69 1011.6
20260906060530 83 158 1.0 1.0 0.00 0.00 0.00 69 1011.5
20260906060027 83 158 1.0 2.0 0.00 0.00 0.00 69 1011.2
20260906055523 83 140 2.0 2.0 0.00 0.00 0.00 69 1011.5
20260906055019 83 148 2.0 2.0 0.00 0.00 0.00 69 1011.5
20260906054519 83 150 1.0 1.0 0.00 0.00 0.00 69 1011.4
20260906054014 83 142 1.0 2.0 0.00 0.00 0.00 69 1011.4
20260906053510 83 146 1.0 1.0 0.00 0.00 0.00 69 1011.3
20260906053005 84 149 1.0 1.0 0.00 0.00 0.00 69 1011.3
20260906052501 84 159 1.0 1.0 0.00 0.00 0.00 69 1011.6
20260906051958 84 142 2.0 2.0 0.00 0.00 0.00 69 1011.5
20260906051453 84 136 1.0 2.0 0.00 0.00 0.00 69 1011.4
20260906050949 84 143 1.0 2.0 0.00 0.00 0.00 69 1011.4
20260906050448 84 149 1.0 1.0 0.00 0.00 0.00 69 1011.4
20260906045947 84 152 0.0 1.0 0.00 0.00 0.00 69 1011.3
20260906045446 84 156 1.0 1.0 0.00 0.00 0.00 69 1011.5
20260906044942 84 161 0.0 1.0 0.00 0.00 0.00 69 1011.2
20260906044437 84 143 1.0 1.0 0.00 0.00 0.00 69 1011.2
20260906043933 84 159 0.0 1.0 0.00 0.00 0.00 69 1011.3
20260906043429 84 162 0.0 1.0 0.00 0.00 0.00 69 1011.4
20260906042924 84 166 0.0 1.0 0.00 0.00 0.00 68 1011.3
20260906042423 84 165 0.0 0.0 0.00 0.00 0.00 68 1011.2
20260906041918 84 164 0.0 0.0 0.00 0.00 0.00 68 1011.2
20260906041414 84 174 0.0 0.0 0.00 0.00 0.00 68 1011.3
20260906040909 84 168 1.0 1.0 0.00 0.00 0.00 68 1011.1
20260906040404 84 157 1.0 1.0 0.00 0.00 0.00 68 1011.3
20260906035859 84 162 0.0 1.0 0.00 0.00 0.00 69 1011.3
20260906035354 83 167 1.0 1.0 0.00 0.00 0.00 69 1011.1
20260906034849 83 165 0.0 0.0 0.00 0.00 0.00 70 1011.0
20260906034344 82 165 0.0 0.0 0.00 0.00 0.00 71 1010.8
20260906033840 83 165 0.0 0.0 0.00 0.00 0.00 72 1010.8
20260906033339 83 165 1.0 1.0 0.00 0.00 0.00 71 1010.7
20260906032835 83 173 0.0 0.0 0.00 0.00 0.00 69 1010.6
20260906032331 83 175 0.0 1.0 0.00 0.00 0.00 70 1010.7
20260906031826 83 173 0.0 0.0 0.00 0.00 0.00 70 1010.7
20260906031321 83 156 1.0 1.0 0.00 0.00 0.00 70 1010.7
20260906030821 83 222 0.0 0.0 0.00 0.00 0.00 69 1010.7
20260906030316 83 223 0.0 0.0 0.00 0.00 0.00 69 1010.7
20260906025811 82 193 0.0 1.0 0.00 0.00 0.00 72 1010.6
20260906025306 82 185 0.0 0.0 0.00 0.00 0.00 73 1010.4
20260906024804 83 159 1.0 1.0 0.00 0.00 0.00 73 1010.3
20260906024303 83 178 0.0 0.0 0.00 0.00 0.00 72 1010.2
20260906023759 83 178 0.0 0.0 0.00 0.00 0.00 72 1010.1
20260906023254 83 178 0.0 0.0 0.00 0.00 0.00 71 1010.2
20260906022749 84 178 0.0 0.0 0.00 0.00 0.00 71 1010.2
20260906022245 84 178 0.0 0.0 0.00 0.00 0.00 70 1010.1
20260906021741 84 178 0.0 0.0 0.00 0.00 0.00 70 1010.0
20260906021240 84 178 0.0 0.0 0.00 0.00 0.00 70 1009.8
20260906020735 84 213 0.0 0.0 0.00 0.00 0.00 69 1009.9
20260906020234 85 213 0.0 0.0 0.00 0.00 0.00 68 1009.7
20260906015729 85 213 0.0 0.0 0.00 0.00 0.00 67 1009.8
20260906015227 85 213 0.0 0.0 0.00 0.00 0.00 67 1009.5
20260906014722 85 213 0.0 0.0 0.00 0.00 0.00 66 1009.5
20260906014218 86 213 0.0 0.0 0.00 0.00 0.00 65 1009.3
20260906013714 86 213 0.0 0.0 0.00 0.00 0.00 65 1009.3
20260906013214 87 213 0.0 0.0 0.00 0.00 0.00 64 1009.4
20260906012710 87 213 0.0 0.0 0.00 0.00 0.00 63 1009.3
20260906012209 87 213 0.0 0.0 0.00 0.00 0.00 62 1009.2
20260906011706 88 214 0.0 0.0 0.00 0.00 0.00 61 1009.4
20260906011205 89 214 0.0 0.0 0.00 0.00 0.00 59 1009.3
20260906010701 89 214 0.0 0.0 0.00 0.00 0.00 58 1009.1
20260906010157 89 214 0.0 0.0 0.00 0.00 0.00 57 1009.2
20260906005656 90 214 0.0 0.0 0.00 0.00 0.00 56 1009.4
20260906005156 91 214 0.0 0.0 0.00 0.00 0.00 54 1009.5
20260906004655 91 215 0.0 1.0 0.00 0.00 0.00 53 1009.5
20260906004150 91 196 0.0 0.0 0.00 0.00 0.00 52 1009.4
20260906003645 92 196 0.0 0.0 0.00 0.00 0.00 51 1009.5
20260906003141 93 196 0.0 0.0 0.00 0.00 0.00 50 1009.7
20260906002636 93 196 0.0 0.0 0.00 0.00 0.00 49 1009.5
20260906002130 94 196 0.0 0.0 0.00 0.00 0.00 47 1009.4
20260906001626 95 124 2.0 2.0 0.00 0.00 0.00 45 1009.5
20260906001125 95 155 1.0 2.0 0.00 0.00 0.00 45 1009.4
20260906000622 95 149 1.0 1.0 0.00 0.00 0.00 45 1009.5
20260906000117 95 152 2.0 2.0 0.00 0.00 0.00 44 1009.4
20260905235615 95 172 0.0 0.0 0.00 0.00 0.00 44 1009.4
20260905235111 95 150 1.0 1.0 0.00 0.00 0.00 44 1009.4
20260905234606 95 175 0.0 0.0 0.00 0.00 0.00 44 1009.5
20260905234101 96 188 0.0 0.0 0.00 0.00 0.00 44 1009.3
20260905233601 96 126 2.0 2.0 0.00 0.00 0.00 43 1009.5
20260905233056 96 114 3.0 3.0 0.00 0.00 0.00 43 1009.2
20260905232551 96 130 2.0 2.0 0.00 0.00 0.00 44 1009.4
20260905232047 96 145 2.0 2.0 0.00 0.00 0.00 44 1009.5
20260905231542 96 180 2.0 2.0 0.00 0.00 0.00 43 1009.3
20260905231038 96 172 0.0 0.0 0.00 0.00 0.00 45 1009.1
20260905230537 97 201 1.0 1.0 0.00 0.00 0.00 44 1009.3
20260905230036 97 163 0.0 1.0 0.00 0.00 0.00 44 1009.2
20260905225531 97 127 2.0 3.0 0.00 0.00 0.00 43 1009.2
20260905225027 96 203 4.0 6.0 0.00 0.00 0.00 44 1009.1
20260905224526 96 212 4.0 6.0 0.00 0.00 0.00 44 1009.2
20260905224026 97 165 0.0 1.0 0.00 0.00 0.00 44 1009.0
20260905223524 97 111 3.0 4.0 0.00 0.00 0.00 42 1008.9
20260905223020 97 185 1.0 1.0 0.00 0.00 0.00 43 1008.9
20260905222519 97 162 0.0 0.0 0.00 0.00 0.00 43 1009.0
20260905222014 97 184 0.0 0.0 0.00 0.00 0.00 44 1008.9
20260905221511 97 109 3.0 3.0 0.00 0.00 0.00 44 1009.1
20260905221007 98 139 3.0 3.0 0.00 0.00 0.00 43 1009.0
20260905220503 98 193 2.0 2.0 0.00 0.00 0.00 43 1009.0
20260905220002 97 144 1.0 1.0 0.00 0.00 0.00 43 1009.1
20260905215458 97 141 5.0 7.0 0.00 0.00 0.00 43 1009.1
20260905214954 98 112 4.0 4.0 0.00 0.00 0.00 43 1009.4
20260905214449 98 171 1.0 1.0 0.00 0.00 0.00 43 1009.1
20260905213949 98 130 2.0 2.0 0.00 0.00 0.00 43 1009.3
20260905213445 98 194 0.0 1.0 0.00 0.00 0.00 42 1009.2
20260905212940 98 183 2.0 2.0 0.00 0.00 0.00 43 1009.2
20260905212435 98 170 1.0 1.0 0.00 0.00 0.00 42 1009.5
20260905211934 99 133 4.0 6.0 0.00 0.00 0.00 42 1009.7
20260905211430 99 105 2.0 2.0 0.00 0.00 0.00 42 1009.7
20260905210926 98 196 0.0 0.0 0.00 0.00 0.00 42 1009.7
20260905210426 98 172 0.0 1.0 0.00 0.00 0.00 43 1009.9
20260905205926 98 145 1.0 2.0 0.00 0.00 0.00 43 1010.2
20260905205421 97 165 2.0 2.0 0.00 0.00 0.00 44 1010.1
20260905204920 97 175 0.0 0.0 0.00 0.00 0.00 44 1010.2
20260905204416 98 147 1.0 1.0 0.00 0.00 0.00 44 1010.2
20260905203915 98 142 2.0 2.0 0.00 0.00 0.00 43 1010.2
20260905203410 98 159 0.0 1.0 0.00 0.00 0.00 42 1010.4
20260905202906 98 194 0.0 0.0 0.00 0.00 0.00 42 1010.3
20260905202401 98 222 0.0 1.0 0.00 0.00 0.00 42 1010.4
20260905201856 98 172 0.0 0.0 0.00 0.00 0.00 41 1010.4
20260905201351 98 185 1.0 2.0 0.00 0.00 0.00 41 1010.4
20260905200845 98 188 1.0 2.0 0.00 0.00 0.00 41 1010.4
20260905200342 98 208 4.0 4.0 0.00 0.00 0.00 40 1010.5
20260905195839 98 206 2.0 2.0 0.00 0.00 0.00 41 1010.6
20260905195335 98 190 1.0 2.0 0.00 0.00 0.00 41 1010.6
20260905194831 98 211 2.0 2.0 0.00 0.00 0.00 42 1010.5
20260905194330 98 242 4.0 4.0 0.00 0.00 0.00 41 1010.7
20260905193829 99 174 2.0 3.0 0.00 0.00 0.00 41 1010.8
20260905193324 98 193 0.0 0.0 0.00 0.00 0.00 41 1010.7
20260905192820 98 212 2.0 2.0 0.00 0.00 0.00 41 1010.9
20260905192316 98 202 1.0 1.0 0.00 0.00 0.00 42 1010.9
20260905191816 98 213 2.0 3.0 0.00 0.00 0.00 43 1010.9
20260905191314 97 204 2.0 3.0 0.00 0.00 0.00 43 1011.1
20260905190813 99 191 2.0 2.0 0.00 0.00 0.00 41 1011.1
20260905190313 99 195 1.0 1.0 0.00 0.00 0.00 41 1011.1
20260905185812 99 201 0.0 0.0 0.00 0.00 0.00 41 1011.4
20260905185307 100 192 2.0 2.0 0.00 0.00 0.00 41 1011.2
20260905184801 99 207 1.0 1.0 0.00 0.00 0.00 42 1011.3
20260905184259 99 200 1.0 1.0 0.00 0.00 0.00 41 1011.5
20260905183758 99 312 2.0 2.0 0.00 0.00 0.00 41 1011.5
20260905183254 98 187 0.0 2.0 0.00 0.00 0.00 43 1011.7
20260905182753 98 162 1.0 1.0 0.00 0.00 0.00 43 1011.6
20260905182248 98 190 1.0 1.0 0.00 0.00 0.00 43 1011.4
20260905181743 100 186 0.0 0.0 0.00 0.00 0.00 40 1011.4
20260905181242 99 194 0.0 0.0 0.00 0.00 0.00 42 1011.7
20260905180737 98 206 0.0 0.0 0.00 0.00 0.00 42 1011.5
20260905180232 99 169 3.0 3.0 0.00 0.00 0.00 42 1011.6
20260905175732 100 196 0.0 1.0 0.00 0.00 0.00 42 1011.5
20260905175227 99 152 1.0 2.0 0.00 0.00 0.00 44 1011.6
20260905174722 98 204 1.0 1.0 0.00 0.00 0.00 44 1011.7
20260905174218 98 207 1.0 1.0 0.00 0.00 0.00 45 1011.9
20260905173714 99 187 0.0 0.0 0.00 0.00 0.00 44 1011.9
20260905173210 99 173 1.0 1.0 0.00 0.00 0.00 44 1012.0
20260905172708 99 203 0.0 1.0 0.00 0.00 0.00 44 1011.8
20260905172203 98 186 0.0 1.0 0.00 0.00 0.00 46 1012.0
20260905171658 98 115 4.0 4.0 0.00 0.00 0.00 45 1012.2